Tracking 18673 objects as of 28-June-2017
HD Live streaming from Space Station
objects crossing your sky now

SL-8 R/B

Track SL-8 R/B now!
10-day predictions


NORAD ID: 13950
Int'l Code: 1983-023B
Perigee: 955.8 km
Apogee: 1,008.7 km
Inclination: 83.0 °
Period: 104.6 minutes
Semi major axis: 7353 km
RCS: 4.7862 m2 (large)
Launch date: March 30, 1983
Source: Commonwealth of Independent States (former USSR) (CIS)
Launch site: PLESETSK MISSILE AND SPACE COMPLEX (PKMTR)

Note: This is a ROCKET BODY
Your satellite tracking list
Your tracking list is empty





NASA's NSSDC Master Catalog

Two Line Element Set (TLE):
1 13950U 83023B   17177.85491126 +.00000073 +00000-0 +58393-4 0  9995
2 13950 082.9541 323.5346 0035937 238.9199 120.8429 13.76845878720139
Source of the keplerian elements: AFSPC